This demonstration page uses our WeatherBlox Daily Observations layout. Learn more.

Left ArrowRight Arrow

34.02893, -84.19858

Hourly Observations for October 22, 2019

Temp ( °F °C ) Dew Point ( °F °C ) Humidity (%) Winds ( mph kmh ) Pressure ( in mb ) Visibility ( mi km ) Precip ( " mm )
12:53 am 00:53 Mostly Cloudy 67 19.4 63 17.2 87 87 SE 3 6 29.90 1012 10 16 0.00 0.00
1:53 am 01:53 Cloudy 67 19.4 62 16.7 84 84 VRB 3 6 29.87 1011 10 16 0.00 0.00
2:53 am 02:53 Cloudy 67 19.4 62 16.7 84 84 S 5 7 29.86 1011 10 16 0.00 0.00
3:53 am 03:53 Partly Cloudy 67 19.4 63 17.2 87 87 SSE 5 7 29.82 1010 10 16 0.00 0.00
4:53 am 04:53 Cloudy 67 19.4 63 17.2 87 87 S 7 11 29.84 1011 10 16 0.00 0.00
5:04 am 05:04 Cloudy 67 19.4 63 17.2 87 87 S 6 9 29.85 1011 10 16 0.00 0.00
5:53 am 05:53 Cloudy 67 19.4 64 17.8 91 91 S 5 7 29.83 1010 10 16 0.00 0.00
6:29 am 06:29 Cloudy 67 19.4 64 17.8 91 91 S 8 13 29.85 1011 10 16 0.00 0.00
6:45 am 06:45 Cloudy with Heavy Rain 67 19.4 65 18.3 93 93 WSW 16 26 29.85 1011 2 3 0.09 2.29
6:47 am 06:47 Cloudy with Heavy Rain 66 19 64 18 94 94 W 16 26 29.85 1011 2 3 0.11 2.79
6:53 am 06:53 Cloudy with Rain 64 17.8 62 16.7 93 93 W 17 28 29.86 1011 3 4 0.13 3.30
6:55 am 06:55 Cloudy with Rain 64 17.8 62 16.7 93 93 W 15 24 29.85 1011 3 5 0.00 0.00
7:03 am 07:03 Cloudy with Light Rain 63 17.2 61 16.1 93 93 WNW 12 19 29.85 1011 6 10 0.00 0.00
7:53 am 07:53 Cloudy with Rain 58 14.4 56 13.3 93 93 NW 18 30 29.91 1013 3 5 0.09 2.29
8:16 am 08:16 Cloudy with Rain 57 13.9 55 12.8 93 93 WNW 10 17 29.94 1014 2 3 0.04 1.02
8:41 am 08:41 Cloudy with Light Rain 57 13.9 56 13.3 96 96 NW 5 7 29.94 1014 7 11 0.07 1.78
8:53 am 08:53 Cloudy with Light Rain 57 13.9 56 13.3 96 96 W 6 9 29.94 1014 10 16 0.07 1.78
9:53 am 09:53 Cloudy 60 15.6 58 14.4 93 93 W 8 13 29.95 1014 10 16 0.00 0.00
10:27 am 10:27 Mostly Cloudy 61 16.1 58 14.4 90 90 W 8 13 29.94 1014 10 16 0.00 0.00
10:53 am 10:53 Partly Cloudy 62 16.7 56 13.3 80 80 WNW 12 19 29.96 1014 10 16 0.00 0.00
11:53 am 11:53 Sunny 65 18.3 52 11.1 63 63 WNW 13 20 29.96 1014 10 16 0.00 0.00
12:53 pm 12:53 Sunny 67 19.4 50 10 55 55 WNW 10 17 29.95 1014 10 16 0.00 0.00
1:53 pm 13:53 Sunny 69 20.6 44 6.7 41 41 WNW 14 22 29.93 1013 10 16 0.00 0.00
2:53 pm 14:53 Sunny 71 21.7 41 5 34 34 W 8 13 29.92 1013 10 16 0.00 0.00
3:53 pm 15:53 Sunny 70 21.1 38 3.3 31 31 W 13 20 29.92 1013 10 16 0.00 0.00
4:53 pm 16:53 Sunny 69 20.6 39 3.9 33 33 W 12 19 29.94 1014 10 16 0.00 0.00
5:53 pm 17:53 Sunny 67 19.4 33 0.6 28 28 W 13 20 29.94 1014 10 16 0.00 0.00
6:53 pm 18:53 Sunny 63 17.2 34 1.1 34 34 W 8 13 29.97 1015 10 16 0.00 0.00
7:53 pm 19:53 Clear 60 15.6 34 1.1 38 38 W 5 7 30.00 1016 10 16 0.00 0.00
8:53 pm 20:53 Clear 57 13.9 37 2.8 47 47 W 5 7 30.02 1017 10 16 0.00 0.00
9:53 pm 21:53 Clear 56 13.3 37 2.8 49 49 W 5 7 30.03 1017 10 16 0.00 0.00
10:53 pm 22:53 Clear 54 12.2 39 3.9 57 57 WNW 8 13 30.07 1018 10 16 0.00 0.00
11:53 pm 23:53 Clear 52 11.1 40 4.4 64 64 WNW 6 9 30.08 1019 10 16 0.00 0.00

Powered by AerisWeather